TUI3384 EDDS-LTBS

Flight info

Callsign TUI3384
Flight time N/A
Altitude 35000
Route ROTWE1K ROTWE Y126 TUBLO N850 NATOR DCT TRA DCT ARGAX DCT RESIA DCT PEVAL DCT UNIPA DCT BARIT DCT POD DCT ENFAR DCT DISOR UL608 FSK UN128 IMR UT489 SONUP
Aircraft B738/M-SDE2E3FGHIRWXY/LB1

Departure

Time N/A
Airport Stuttgart Airport (EDDS)

Arrival

Time 2026-04-23 16:41
Airport Dalaman International Airport (LTBS)
Time Latitude Longitude Altitude Speed Heading
2026-04-23 16:20 37.99868 27.58864 34908 ft 507 kts 131°
2026-04-23 16:21 37.95825 27.66180 34920 ft 507 kts 131°
2026-04-23 16:21 37.91772 27.73503 34861 ft 508 kts 131°
2026-04-23 16:22 37.89751 27.77145 34297 ft 511 kts 131°
2026-04-23 16:22 37.87719 27.80810 33658 ft 508 kts 131°
2026-04-23 16:22 37.85690 27.84469 32954 ft 506 kts 131°
2026-04-23 16:22 37.83662 27.88127 32255 ft 504 kts 131°
2026-04-23 16:23 37.81678 27.91700 31577 ft 502 kts 131°
2026-04-23 16:23 37.79679 27.95297 30874 ft 499 kts 131°
2026-04-23 16:23 37.77684 27.98883 30169 ft 496 kts 131°
2026-04-23 16:23 37.75694 28.02452 29342 ft 500 kts 131°
2026-04-23 16:24 37.73662 28.06085 28498 ft 509 kts 131°
2026-04-23 16:24 37.71618 28.09741 27638 ft 506 kts 130°
2026-04-23 16:24 37.69604 28.13349 26800 ft 502 kts 130°
2026-04-23 16:24 37.67594 28.16948 25909 ft 498 kts 130°
2026-04-23 16:25 37.65605 28.20504 25136 ft 493 kts 130°
2026-04-23 16:25 37.63623 28.24040 24527 ft 496 kts 130°
2026-04-23 16:25 37.61631 28.27580 23880 ft 499 kts 130°
2026-04-23 16:25 37.59640 28.31126 23151 ft 490 kts 130°
2026-04-23 16:26 37.57682 28.34611 22422 ft 481 kts 130°
2026-04-23 16:26 37.55758 28.38032 21798 ft 473 kts 130°
2026-04-23 16:26 37.53869 28.41386 21136 ft 463 kts 130°
2026-04-23 16:26 37.52011 28.44677 20517 ft 463 kts 130°
2026-04-23 16:27 37.50008 28.47891 19877 ft 463 kts 141°
2026-04-23 16:27 37.47504 28.50194 19266 ft 440 kts 159°
2026-04-23 16:27 37.44701 28.51527 18652 ft 422 kts 172°
2026-04-23 16:27 37.41871 28.52377 17977 ft 415 kts 174°
2026-04-23 16:28 37.39072 28.53163 17320 ft 411 kts 174°
2026-04-23 16:28 37.36256 28.53976 16702 ft 419 kts 173°
2026-04-23 16:28 37.33506 28.54820 16530 ft 401 kts 172°
2026-04-23 16:28 37.30858 28.55652 16349 ft 383 kts 173°
2026-04-23 16:29 37.28322 28.56448 16210 ft 369 kts 173°
2026-04-23 16:29 37.25865 28.57209 16061 ft 358 kts 172°
2026-04-23 16:29 37.23482 28.57943 15837 ft 348 kts 174°
2026-04-23 16:29 37.21145 28.58592 15633 ft 347 kts 172°
2026-04-23 16:30 37.18813 28.59343 15333 ft 342 kts 172°
2026-04-23 16:30 37.16533 28.60100 14994 ft 338 kts 168°
2026-04-23 16:30 37.14452 28.61514 14682 ft 347 kts 144°
2026-04-23 16:30 37.12937 28.63888 14355 ft 354 kts 120°
2026-04-23 16:31 37.12276 28.66818 14038 ft 356 kts 96°
2026-04-23 16:31 37.12478 28.69896 13722 ft 353 kts 79°
2026-04-23 16:31 37.12942 28.72912 13341 ft 350 kts 78°
2026-04-23 16:31 37.13394 28.75850 12997 ft 338 kts 80°
2026-04-23 16:32 37.13472 28.78715 12791 ft 321 kts 102°
2026-04-23 16:32 37.12863 28.81355 12359 ft 314 kts 112°
2026-04-23 16:32 37.12147 28.83938 11790 ft 312 kts 112°
2026-04-23 16:32 37.11441 28.86504 11308 ft 310 kts 111°
2026-04-23 16:33 37.10759 28.89062 10874 ft 307 kts 111°
2026-04-23 16:33 37.10103 28.91557 10523 ft 303 kts 110°
2026-04-23 16:33 37.09432 28.94059 10175 ft 299 kts 116°
2026-04-23 16:33 37.08243 28.96076 9670 ft 283 kts 149°
2026-04-23 16:34 37.06477 28.96979 9049 ft 271 kts 177°
2026-04-23 16:34 37.04620 28.97001 8543 ft 263 kts 193°
2026-04-23 16:34 37.02874 28.96438 8079 ft 257 kts 201°
2026-04-23 16:34 37.01410 28.95200 7383 ft 255 kts 224°
2026-04-23 16:35 36.99930 28.93961 7035 ft 255 kts 212°
2026-04-23 16:35 36.98360 28.92856 6337 ft 263 kts 214°
2026-04-23 16:35 36.96835 28.91661 5927 ft 263 kts 216°
2026-04-23 16:35 36.95297 28.90418 5513 ft 262 kts 215°
2026-04-23 16:36 36.93784 28.89214 5120 ft 252 kts 216°
2026-04-23 16:36 36.92320 28.88053 4739 ft 246 kts 215°
2026-04-23 16:36 36.90886 28.86916 4371 ft 242 kts 214°
2026-04-23 16:36 36.89479 28.85804 4016 ft 238 kts 214°
2026-04-23 16:37 36.87989 28.84934 3629 ft 237 kts 196°
2026-04-23 16:37 36.86407 28.84431 3296 ft 233 kts 197°
2026-04-23 16:37 36.84869 28.83871 2918 ft 225 kts 196°
2026-04-23 16:37 36.83419 28.83376 2605 ft 208 kts 195°
2026-04-23 16:38 36.82061 28.82914 2305 ft 196 kts 194°
2026-04-23 16:38 36.80786 28.82477 2011 ft 186 kts 194°
2026-04-23 16:38 36.79596 28.82072 1740 ft 171 kts 195°
2026-04-23 16:38 36.78512 28.81703 1494 ft 152 kts 195°
2026-04-23 16:39 36.77537 28.81370 1269 ft 142 kts 196°
2026-04-23 16:39 36.76558 28.81037 1021 ft 148 kts 196°
2026-04-23 16:39 36.75580 28.80704 814 ft 143 kts 197°
2026-04-23 16:39 36.74613 28.80364 587 ft 143 kts 196°
2026-04-23 16:40 36.73655 28.80045 324 ft 139 kts 198°
2026-04-23 16:40 36.72707 28.79726 89 ft 143 kts 198°
2026-04-23 16:40 36.71779 28.79411 19 ft 124 kts 195°
2026-04-23 16:40 36.71092 28.79177 12 ft 73 kts 197°
2026-04-23 16:41 36.70738 28.79039 12 ft 40 kts 210°
2026-04-23 16:41 36.70569 28.78855 12 ft 9 kts 249°
2026-04-23 16:41 36.70603 28.78805 12 ft 8 kts 344°
2026-04-23 16:41 36.70660 28.78816 12 ft 8 kts 14°
2026-04-23 16:42 36.70714 28.78835 12 ft 8 kts 15°
2026-04-23 16:42 36.70776 28.78856 12 ft 14 kts 15°
2026-04-23 16:42 36.70899 28.78897 12 ft 21 kts 16°
2026-04-23 16:42 36.71061 28.78952 12 ft 26 kts 15°
2026-04-23 16:43 36.71237 28.79011 12 ft 26 kts 16°
2026-04-23 16:43 36.71404 28.79068 13 ft 24 kts 15°
2026-04-23 16:43 36.71560 28.79121 11 ft 23 kts 16°
2026-04-23 16:43 36.71711 28.79173 11 ft 21 kts 15°
2026-04-23 16:44 36.71811 28.79206 11 ft 13 kts 11°
2026-04-23 16:44 36.71878 28.79148 11 ft 13 kts 285°
2026-04-23 16:44 36.71905 28.79043 11 ft 13 kts 314°
2026-04-23 16:44 36.71988 28.79046 11 ft 12 kts 15°
2026-04-23 16:45 36.72070 28.79075 11 ft 12 kts 15°
2026-04-23 16:45 36.72135 28.79065 11 ft 10 kts 306°
2026-04-23 16:45 36.72148 28.79025 12 ft 2 kts 285°
2026-04-23 16:45 36.72149 28.79020 11 ft 0 kts 285°
2026-04-23 16:46 36.72149 28.79021 11 ft 0 kts 285°